sat.trackr.live / text

‹ back to catalog

XCUBE-1

NORAD 62400 · 2024-247Z

PAYLOAD ACTIVE UNKNOWN

§ Identity

Operator
Country
US
Launch date
2024-12-21
Launch site
AFWTR
Launch vehicle
Mass (kg)
RCS (m²)

External: N2YO · Heavens-Above · Gunter

§ Orbital elements

Epoch: 2026-05-24T22:36:31.402368Z

Period
94.17 min
Inclination
44.9981°
Eccentricity
0.0002790
Mean motion
15.29186725 rev/d
Perigee alt
476.3 km
Apogee alt
480.2 km
Semi-major
6,856.4 km
B*
2.5302e-4
RAAN
59.6981°
Arg perigee
73.0621°
Mean anomaly
287.0568°
Rev number
7,940

§ Raw data

XCUBE-11 62400U 24247Z   26144.94203012  .00007009  00000+0  25302-3 0  99992 62400  44.9981  59.6981 0002790  73.0621 287.0568 15.29186725 79406

JSON: /api/v1/satellites/62400 · /tle

For live sub-satellite position, see the globe view (requires WebGL).

§ Visibility from observer

Set your observer location to see the next 7 days of passes ≥ 10°. The values pass through the URL so the page stays shareable.

No JS? Fill the form by hand. The geolocation button needs JavaScript.

§ Radio — SatNOGS DB

ModeDescriptionDownlinkUplink
BPSK Mode S - Transmitter 2.245 GHz
FM Mode X - Transmitter 8.200 GHz

2 transmitters · refreshed weekly from db.satnogs.org